Paducah, KY

8:18 AM CDT on June 27, 2017 (GMT -0500)
Barkley Regional

Weather History for KPAH - December, 2011

Change the Weather History Date:

Tuesday, December 27, 2011

  Actual Average Record
Temperature  
Mean Temperature 41 °F 35 °F  
Max Temperature 49 °F 44 °F 76 °F (1942)
Min Temperature 33 °F 27 °F 10 °F (2004)
Degree Days  
Heating Degree Days 24 30  
Month to date heating degree days 637 734  
Since 1 July heating degree days 1327 1511  
Cooling Degree Days 0 0  
Month to date cooling degree days 0 0  
Year to date cooling degree days 1703 1542  
Moisture  
Dew Point 35 °F    
Average Humidity 80    
Maximum Humidity 100    
Minimum Humidity 60    
Precipitation  
Precipitation 0.39 in 0.13 in 2.22 in (2015)
Month to date precipitation 7.29 4.06  
Year to date precipitation 74.85 48.55  
Snow  
Snow T in 0.10 in 1.20 in (1990)
Month to date snowfall T 1.9  
Since 1 July snowfall 0.3 2.0  
Snow Depth 0.00 in    
Sea Level Pressure  
Sea Level Pressure 29.83 in    
Wind  
Wind Speed 10 mph (WNW)    
Max Wind Speed 20 mph    
Max Gust Speed 29 mph    
Visibility 7 miles    
Events Fog , Rain , Snow    
T = Trace of Precipitation, MM = Missing Value Source: NWS Daily Summary

Daily Weather History Graph

Daily Weather History Graph

Search for Another Location

Airport or City:

Trip Planner

Search our weather history database for the weather conditions in past years. The results will help you decide how hot, cold, wet, or windy it might be!

Date:

Astronomy

Dec. 27, 2011 Rise Set
Actual Time 7:07 AM CST 4:45 PM CST
Civil Twilight 6:38 AM CST 5:14 PM CST
Nautical Twilight 6:05 AM CST 5:46 PM CST
Astronomical Twilight 5:33 AM CST 6:18 PM CST
Moon 9:06 AM CST 8:13 PM CST
Length of Visible Light 10h 35m
Length of Day
9h 37m
Waxing Crescent, 11% of the Moon is Illuminated
Dec 27
Waxing Crescent
Jan 1
First Quarter
Jan 9
Full
Jan 16
Last Quarter
Jan 23
New

Hourly Weather History & Observations

Time (CST) Temp. Windchill Dew Point Humidity Pressure Visibility Wind Dir Wind Speed Gust Speed Precip Events Conditions
12:05 AM 37.4 °F 30.8 °F 37.4 °F 100% 29.82 in 3.0 mi ENE 9.2 mph - 0.04 in Rain Rain
12:12 AM 37.4 °F 30.8 °F 37.4 °F 100% 29.82 in 4.0 mi ENE 9.2 mph - 0.06 in Rain Rain
12:53 AM 37.9 °F 33.5 °F 37.0 °F 97% 29.80 in 6.0 mi South 5.8 mph - 0.11 in Rain Light Rain
1:21 AM 39.2 °F - 37.4 °F 93% 29.77 in 10.0 mi Calm Calm - 0.01 in   Overcast
1:53 AM 39.2 °F - 37.4 °F 93% 29.75 in 2.5 mi Calm Calm - N/A Rain Light Rain
2:14 AM 39.2 °F - 37.4 °F 93% 29.75 in 1.8 mi Calm Calm - 0.01 in   Overcast
2:35 AM 37.4 °F 34.9 °F 37.4 °F 100% 29.74 in 2.0 mi NNW 3.5 mph - 0.01 in   Overcast
2:53 AM 37.9 °F 35.5 °F 37.9 °F 100% 29.75 in 2.5 mi NW 3.5 mph - 0.02 in Rain Light Rain
3:31 AM 37.4 °F 33.8 °F 37.4 °F 100% 29.72 in 3.0 mi NW 4.6 mph - 0.02 in Rain Light Rain
3:53 AM 37.9 °F 32.7 °F 37.0 °F 97% 29.71 in 6.0 mi NW 6.9 mph - 0.03 in Rain Light Rain
4:53 AM 37.9 °F 34.4 °F 37.0 °F 97% 29.69 in 7.0 mi NNW 4.6 mph - 0.07 in Rain Light Rain
5:39 AM 37.4 °F 30.8 °F 35.6 °F 93% 29.70 in 7.0 mi WNW 9.2 mph - 0.03 in Rain Light Rain
5:53 AM 37.4 °F 30.8 °F 35.6 °F 93% 29.70 in 9.0 mi WNW 9.2 mph - N/A Rain Light Rain
6:53 AM 34.0 °F 25.5 °F 32.0 °F 92% 29.74 in 4.0 mi West 11.5 mph - 0.03 in Snow Light Snow
7:48 AM 33.8 °F 25.3 °F 32.0 °F 93% 29.76 in 1.8 mi West 11.5 mph - 0.01 in Snow Light Snow
7:49 AM 33.8 °F 25.3 °F 32.0 °F 93% 29.76 in 1.5 mi West 11.5 mph - N/A Snow Light Snow
8:02 AM 33.8 °F 25.3 °F 30.2 °F 87% 29.76 in 0.5 mi West 11.5 mph - 0.02 in Fog , Snow Snow
8:31 AM 33.8 °F 25.8 °F 32.0 °F 93% 29.77 in 1.0 mi West 10.4 mph - 0.06 in Snow Light Snow
8:53 AM 33.1 °F 24.4 °F 32.0 °F 96% 29.79 in 3.0 mi West 11.5 mph - 0.07 in Snow Light Snow
9:53 AM 34.0 °F 24.2 °F 33.1 °F 96% 29.81 in 4.0 mi West 15.0 mph - 0.01 in   Overcast
10:53 AM 37.0 °F 27.7 °F 35.1 °F 93% 29.82 in 10.0 mi West 16.1 mph 21.9 mph N/A   Overcast
11:21 AM 37.4 °F 29.3 °F 35.6 °F 93% 29.80 in 10.0 mi West 12.7 mph 20.7 mph N/A   Overcast
11:38 AM 39.2 °F 30.8 °F 35.6 °F 87% 29.80 in 10.0 mi West 15.0 mph 21.9 mph N/A   Overcast
11:53 AM 39.9 °F 31.1 °F 36.0 °F 86% 29.81 in 10.0 mi West 17.3 mph - N/A   Overcast
12:32 PM 42.8 °F 35.4 °F 37.4 °F 81% 29.79 in 10.0 mi West 15.0 mph - N/A   Scattered Clouds
12:53 PM 44.1 °F 36.8 °F 37.9 °F 79% 29.80 in 10.0 mi West 16.1 mph - N/A   Partly Cloudy
1:20 PM 44.6 °F 37.8 °F 37.4 °F 76% 29.79 in 10.0 mi West 15.0 mph - N/A   Mostly Cloudy
1:53 PM 44.6 °F 38.1 °F 37.4 °F 76% 29.80 in 10.0 mi West 13.8 mph - N/A   Mostly Cloudy
2:53 PM 48.0 °F - 37.0 °F 66% 29.83 in 10.0 mi West 16.1 mph 21.9 mph N/A   Mostly Cloudy
3:53 PM 46.9 °F - 34.0 °F 61% 29.89 in 10.0 mi WNW 13.8 mph 21.9 mph N/A   Overcast
4:53 PM 44.6 °F 37.8 °F 33.8 °F 66% 29.94 in 10.0 mi NW 15.0 mph - N/A   Overcast
5:53 PM 44.1 °F 39.5 °F 32.0 °F 63% 29.98 in 10.0 mi NW 8.1 mph - N/A   Overcast
6:53 PM 43.0 °F 38.2 °F 30.9 °F 62% 30.01 in 10.0 mi WNW 8.1 mph - N/A   Mostly Cloudy
7:53 PM 43.0 °F 37.2 °F 30.9 °F 62% 30.04 in 10.0 mi West 10.4 mph - N/A   Mostly Cloudy
8:53 PM 43.0 °F 37.2 °F 30.9 °F 62% 30.06 in 10.0 mi WNW 10.4 mph 18.4 mph N/A   Overcast
9:53 PM 39.9 °F 35.1 °F 28.9 °F 65% 30.06 in 10.0 mi West 6.9 mph - N/A   Clear
10:53 PM 36.0 °F 33.3 °F 28.9 °F 76% 30.07 in 10.0 mi Variable 3.5 mph - N/A   Clear
11:53 PM 36.0 °F 33.3 °F 28.9 °F 76% 30.08 in 10.0 mi NNW 3.5 mph - N/A   Clear